OneWeb SL0510

operational
NORAD ID: 54128 Int'l Des: 2022-138 Owner: ONEWEBN Country: UK Constellation: oneweb
LEOCIRCULARPOLARONEWEB_TYPE

Über OneWeb SL0510

Beschreibung wird geladen...

Live-Position

3D-Globus wird geladen...

Nächste Überflüge

Höhenverlauf

Altitude vs Time

uPlot chart will show altitude changes over time

Zweizeiliger Elementsatz

1 54128U 22138R 25353.58789722 .00000124 00000-0 27416-3 0 9992
2 54128 87.9210 310.2538 0001551 95.5818 264.5493 13.20770841155578
Epoch: 19. Dez. 2025 • Age: 13 hours

Aktueller Status

Höhe 1195.0 km
Geschwindigkeit 7.25 km/s
Subsatellitenpunkt -33.21°S, 179.81°E
Startdatum 22. Okt. 2022
Alter 3.1 years
Typ internet

Technische Details

Klassifizierung Payload
Masse 148.00 kg
Trockenmasse 140.00 kg
Gesamtmasse 148.00 kg
Länge 1.30 m
Durchmesser 1.00 m
Spannweite 5.00 m
Form Trapezoid+2 pan
Hersteller ONEWUS
Bus-Typ ARROW
Phasenstatus In Orbit
Besitzer/Staat ONEWEBN/UK

Große Konstellationen

Loading constellations...